Regional Weather Roundup
Issued by NWS

Home | Current Version | Previous Version | Graphics & Text | Print | Product List | Glossary On
Versions: 1 2 3 4 5 6 7 8 9 10 11 12 13 14 15 16 17 18 19 20 21 22 23 24 25 26 27 28 29 30 31 32 33 34 35 36 37 38 39 40 41 42 43 44 45 46 47 48 49 50
740
ASUS45 KBOU 191407
RWRCO

WEATHER ROUNDUP FOR COLORADO
NATIONAL WEATHER SERVICE DENVER/BOULDER CO
800 AM MDT SAT AUG 19 2017

NOTE: "FAIR" INDICATES FEW OR NO CLOUDS BELOW 12000 FEET WITH NO
SIGNIFICANT WEATHER AND/OR OBSTRUCTIONS TO VISIBILITY.

COZ001>005-013-030-031-191500-
...NORTHWEST COLORADO...

CITY           SKY/WX    TMP DP  RH WIND       PRES   REMARKS
CRAIG          FAIR      51  38  60 E3        30.25S
HAYDEN         FAIR      55  36  48 E9        30.28R
MEEKER         FAIR      55  37  50 CALM      30.26R
RABBIT EARS PA FAIR      52  32  46 W5        30.52R
STEAMBOAT SPGS FAIR      48  37  67 CALM      30.29S
WALDEN         FAIR      45  32  61 CALM      30.37S
$$

COZ006>008-011-191500-
...WEST CENTRAL VALLEYS...

CITY           SKY/WX    TMP DP  RH WIND       PRES   REMARKS
GRAND JUNCTION FAIR      68  38  33 S7        30.14R
MONTROSE       FAIR      58  40  51 S7        30.22S
EAGLE          FAIR      52  34  50 CALM      30.33R
RIFLE          FAIR      58  35  42 CALM      30.22R
DELTA          FAIR      63  37  37 NE5       30.20R
NUCLA          FAIR      61  32  33 SE8       30.26R
$$

COZ017>023-064>068-191500-
...SOUTHWEST COLORADO...

CITY           SKY/WX    TMP DP  RH WIND       PRES   REMARKS
DURANGO        FAIR      55  38  52 NW7       30.30R
CORTEZ         FAIR      55  38  52 E5        30.23R
PAGOSA SPRINGS FAIR      59  33  37 CALM      30.38S
TELLURIDE      FAIR      54  33  43 SE6       30.48R
WOLF CREEK PAS FAIR      46  32  57 S8        30.71S
$$

COZ009-010-012-014-032>034-037-058>063-191500-
...CENTRAL COLORADO...

CITY           SKY/WX    TMP DP  RH WIND       PRES   REMARKS
ASPEN          FAIR      57  34  41 S3        30.34S
BUENA VISTA    FAIR      54  35  48 NW8       30.40S
COPPER MTN     FAIR      54  23  30 W8G16     30.64S
BERTHOUD PASS  FAIR      45  39  81 W23G31    30.66R
COTTONWOOD PAS FAIR      59  32  36 E3        30.51R
GUNNISON       FAIR      44  35  70 E3        30.42R
KREMMLING      FAIR      50  41  71 CALM      30.37R
LEADVILLE      FAIR      47  31  53 CALM      30.49R
MONARCH PASS   FAIR      46  30  53 SW13      30.76R
SALIDA         FAIR      56  39  52 CALM      30.44R
SUNLIGHT       FAIR      52  27  37 SW5       30.58R
WILKERSON PASS FAIR      54  23  30 W3        30.62S
$$

COZ069>075-191500-
...SAN LUIS VALLEY/SANGRE DE CRISTO MOUNTAINS...

CITY           SKY/WX    TMP DP  RH WIND       PRES   REMARKS
ALAMOSA        FAIR      55  42  61 N3        30.37R
DEL NORTE      FAIR      56  37  49 W8        30.41R
LA VETA PASS   NOT AVBL
SAGUACHE       FAIR      55  37  50 NW5       30.41R
$$

COZ035-036-038>040-191500-
...NORTHERN COLORADO FRONT RANGE...

CITY           SKY/WX    TMP DP  RH WIND       PRES   REMARKS
DENVER INTL AP FAIR      68  45  43 W6        30.12S
DMNS CITY PARK   N/A     69  42  38 SE8       30.12S
AURORA         MOSUNNY   68  46  44 SW12      30.14S
FRONT RANGE AP FAIR      70  48  46 W7        30.14R
ERIE MUNI ARPT FAIR      64  48  56 MISG      30.16S
BOULDER MUN AP FAIR      64  45  48 CALM      30.11S
CENTENNIAL     FAIR      71  43  36 CALM      30.16S
BROOMFIELD     NOT AVBL
FORT COLLINS   FAIR      65  50  58 NE5       30.10S
LONGMONT       FAIR      65  51  60 CALM      30.11F HAZE
$$

COZ041-046-047-076>085-087-088-191500-
...PIKES PEAK/PALMER DIVIDE AND SOUTHERN FOOTHILLS...

CITY           SKY/WX    TMP DP  RH WIND       PRES   REMARKS
COLO. SPRINGS  FAIR      66  53  63 CALM      30.21R
A. F. ACADEMY  FAIR      65  45  48 NE9       30.22R
SCHRIEVER AFB  PTSUNNY   64  54  70 W6        30.20S
CHEYENNE MTN   FAIR      71  35  26 S3        30.20R
ELLICOTT       NOT AVBL
FALCON         FAIR      68  40  35 W14       30.25S
FORT CARSON    PTSUNNY   63  52  67 NW5       30.17S
LIMON          FAIR      62  58  86 CALM      30.15R
MONUMENT HILL  FAIR      64  45  48 W7        30.27R
CANON CITY     SUNNY     73  45  35 W15G21    30.16S
WALSENBURG     FAIR      77  41  27 W9G17     30.21R
TRINIDAD       FAIR      70  46  42 W15       30.19R
$$

COZ042>045-048>051-090-091-191500-
...NORTHEAST COLORADO...

CITY           SKY/WX    TMP DP  RH WIND       PRES   REMARKS
GREELEY ARPT   FAIR      59  53  80 W6        30.09R
AKRON          FAIR      70  56  61 SW15      30.06F
BURLINGTON     FAIR      70  62  76 S13       30.06S
WRAY           NOT AVBL
YUMA           FAIR      68  50  52 SW12      30.03S
STERLING       FAIR      63  57  82 S6        30.02F
HOLYOKE        FAIR      64  59  82 CALM      30.03S
FORT MORGAN    FAIR      65  54  66 SW7       30.06F
$$

COZ086-089-092>099-191500-
...SOUTHEAST COLORADO...

CITY           SKY/WX    TMP DP  RH WIND       PRES   REMARKS
PUEBLO         FAIR      68  54  60 NW3       30.11S
LA JUNTA       FAIR      68  55  63 MISG      30.09R
LAMAR          FAIR      68  63  84 E3        30.03F
SPRINGFIELD      N/A     72  66  81 SW6       30.10S
$$




USA.gov is the U.S. government's official web portal to all federal, state and local government web resources and services.